Location: Munkebjergskolens Observatorium
(55.3864°N, 10.3987°E)
Time: 13:04:12
(UTC+02:00)

KKS-1 - Visible Passes

Search period start: 02 April 2023 00:00
Search period end: 12 April 2023 00:00
Orbit: 632 x 646 km, 98.2° (Epoch: 02 April)

Date Brightness Start Highest point End Pass type
(mag) Time Alt. Az. Time Alt. Az. Time Alt. Az.
02 Apr ? 00:17:41 10° NNE 00:20:49 46° NNE 00:20:49 46° NNE visible
02 Apr ? 01:55:11 10° NNW 01:58:00 17° NW 01:58:24 17° WNW visible
02 Apr ? 23:04:56 10° NE 23:06:51 19° ENE 23:06:51 19° ENE visible
03 Apr ? 00:40:59 10° N 00:44:25 46° NNW 00:44:25 46° NNW visible
03 Apr ? 02:19:12 10° NNW 02:20:55 12° NW 02:22:00 11° WNW visible
03 Apr ? 23:27:50 10° NNE 23:30:27 28° ENE 23:30:27 28° ENE visible
04 Apr ? 01:04:22 10° N 01:08:01 36° NW 01:08:01 36° NW visible
04 Apr ? 23:50:54 10° NNE 23:54:02 41° NE 23:54:02 41° NE visible
05 Apr ? 01:27:51 10° N 01:31:28 25° WNW 01:31:36 25° WNW visible
05 Apr ? 22:38:54 10° NE 22:40:03 13° ENE 22:40:03 13° ENE visible
06 Apr ? 00:14:04 10° NNE 00:17:37 57° NNE 00:17:37 57° NNE visible
06 Apr ? 01:51:28 10° N 01:54:26 18° NW 01:55:12 17° WNW visible
06 Apr ? 23:01:23 10° NE 23:03:38 20° ENE 23:03:38 20° ENE visible
07 Apr ? 00:37:20 10° N 00:41:12 56° NW 00:41:12 56° NW visible
07 Apr ? 02:15:22 10° NNW 02:17:21 13° NW 02:18:46 11° WNW visible
07 Apr ? 23:24:13 10° NNE 23:27:12 30° ENE 23:27:12 30° ENE visible
08 Apr ? 01:00:41 10° N 01:04:47 39° WNW 01:04:47 39° WNW visible
08 Apr ? 23:47:14 10° NNE 23:50:47 46° ENE 23:50:47 46° ENE visible
09 Apr ? 01:24:06 10° N 01:27:50 27° WNW 01:28:21 26° WNW visible
09 Apr ? 22:35:24 10° NE 22:36:46 13° ENE 22:36:46 13° ENE visible
10 Apr ? 00:10:23 10° NNE 00:14:20 70° NE 00:14:20 70° NE visible
10 Apr ? 01:47:41 10° N 01:50:48 19° NW 01:51:55 17° WNW visible
10 Apr ? 22:57:45 10° NE 23:00:20 20° ENE 23:00:20 20° ENE visible
11 Apr ? 00:33:36 10° N 00:37:54 65° WNW 00:37:54 65° WNW visible
11 Apr ? 02:11:29 10° NNW 02:13:41 14° NW 02:15:28 11° WNW visible
11 Apr ? 23:20:32 10° NNE 23:23:53 30° E 23:23:53 30° E visible
